Location: Guadanolo
(41.9167°N, 12.9333°E)
Time: 19:31:20
(UTC+00:00)

Cosmos 2074 Rocket - Pass Details

Date: 16 September 2019
Orbit: 966 x 987 km, 82.9° (Epoch: 22 October)

Event Time Altitude Azimuth Distance (km) Brightness Sun altitude
Rises 17:30:23 0° 358° (N) 3,687 7.1 -3.3°
Reaches altitude 10° 17:33:04 10° 5° (N) 2,732 6.4 -3.8°
Maximum altitude 17:38:59 43° 76° (ENE) 1,342 4.4 -4.9°
Drops below altitude 10° 17:44:50 10° 147° (SSE) 2,704 5.9 -6.0°
Sets 17:47:28 0° 154° (SSE) 3,644 6.7 -6.5°
